Weather Roundup
Issued by NWS Corpus Christi, TX

Home | Current Version | Previous Version | Text Only | Print | Product List | Glossary On
Versions: 1 2 3 4 5 6 7 8 9 10 11 12 13 14 15 16 17 18 19 20 21 22 23 24 25 26 27 28 29 30 31 32 33 34 35 36 37 38 39 40 41 42 43 44 45 46 47 48 49 50
000
ASUS44 KCRP 031510
HRRCRP

SOUTH TEXAS REGIONAL WEATHER ROUNDUP
NATIONAL WEATHER SERVICE CORPUS CHRISTI TX
1000 AM CDT THU SEP 03 2015


TXZ229>244-031600-
...CORPUS CHRISTI AREA OBSERVATIONS...

CITY           SKY/WX    TMP DP  RH WIND       PRES   REMARKS
CORPUS CHRISTI PTSUNNY   85  76  74 W3        29.93R HX  94
NAS CORPUS CHR MOSUNNY   84  76  76 W6        29.93R HX  93
ROCKPORT       MOSUNNY   80  75  84 N8        29.93S
KINGSVILLE NAS PTSUNNY   84  78  82 SW3       29.93R HX  95
ALICE          PTSUNNY   83  75  77 MISG      29.93R HX  90
FALFURRIAS     PTSUNNY   84  76  77 S5        29.93R HX  92
$$

...VICTORIA AREA OBSERVATIONS...

CITY           SKY/WX    TMP DP  RH WIND       PRES   REMARKS
VICTORIA         N/A     81  77  88 NE3       29.95S
BEEVILLE       FAIR      83  77  84 NE6       29.95R HX  91
PLEASANTON     PTSUNNY   81  71  71 CALM      29.96S
SAN ANTONIO    PTSUNNY   82  72  71 NE6       29.98R
$$

...LAREDO AREA OBSERVATIONS...

CITY           SKY/WX    TMP DP  RH WIND       PRES   REMARKS
LAREDO         SUNNY     86  74  67 SE8       29.94S HX  94
COTULLA        MOSUNNY   83  73  72 VRB3      29.95R
DEL RIO        PTSUNNY   80  71  74 SE7       29.96R
MCALLEN        MOSUNNY   85  77  77 SE10      29.92R HX  95
HEBBRONVILLE   NOT AVBL
$$

...OTHER TEXAS OBSERVATIONS...

CITY           SKY/WX    TMP DP  RH WIND       PRES   REMARKS
BROWNSVILLE    MOSUNNY   86  78  77 SE7       29.91R HX  98
HOUSTON        MOSUNNY   79  76  90 NE6       29.97S
COL. STATION   MOSUNNY   81  73  76 NE5       29.98S
AUSTIN         PTSUNNY   80  71  74 CALM      29.97S
WACO           SUNNY     81  70  69 S5        29.99S
FORT WORTH     MOSUNNY   82  69  64 S6        29.98F
WICHITA FALLS  MOSUNNY   83  65  54 S12       29.98S
LUBBOCK        PTSUNNY   78  57  48 SW12      30.05R
EL PASO        CLOUDY    81  51  35 CALM      30.07S
$$

...MARINE OBSERVATIONS...

STATION/POSITION TIME  SKY/WX   TEMP    WIND        PRES    VSBY  WAVE   SWELL
                                AIR SEA DIR/SP/G                  HT/PER HT/PER
                 (UTC)          (F)     (DEG/KT/KT) (MB)    (MI)  (FT/S) (FT/S)
PORT ARANSAS     1500            80 84   10/  9/ 10 1014.2R
BUOY 90 E PORT A 1450            80 84   30/  2/  4 1013.9R         3/ 5   2/ 5
BUOY 45 SE BAFFI 1450            83 85  210/  6/  8 1012.9R         2/ 6   2/ 6
BUOY 200 E PT IS 1450            85 85  170/ 12/ 16 1014.1R         3/ 6   2/ 6
BUOY 15 E GALVES 1450            84 86  150/  2/  4 1014.6R         2/ 5   2/ 5
$$


USA.gov is the U.S. government's official web portal to all federal, state and local government web resources and services.